Regional Weather Roundup
Issued by NWS

Home | Current Version | Previous Version | Graphics & Text | Print | Product List | Glossary On
Versions: 1 2 3 4 5 6 7 8 9 10 11 12 13 14 15 16 17 18 19 20 21 22 23 24 25 26 27 28 29 30 31 32 33 34 35 36 37 38 39 40 41 42 43 44 45 46 47 48 49 50
000
ASUS45 KABQ 240901
RWRNM
NEW MEXICO REGIONAL WEATHER ROUNDUP
NATIONAL WEATHER SERVICE ALBUQUERQUE NM
300 AM MDT SUN JUL 24 2016

NOTE: "FAIR" MEANS FEW OR NO CLOUDS BELOW 12,000 FEET AGL WITH NO
       SIGNIFICANT WEATHER OR OBSTRUCTIONS TO VISION.

      THIS PRODUCT IS RELEASED AS TWO VERSIONS.  ONE VERSION NEAR
      THE TOP OF THE HOUR CONTAINING PRELIMINARY DATA FROM ALBUQUERQUE
      AND OTHER STATIONS.  A FINAL VERSION WITH ADDITIONAL DATA IS
      ISSUED ABOUT 10 MINUTES AFTER THE HOUR.

NMZ501-503-504-510>518-241000-
NORTHWEST PLATEAU/NORTHCENTRAL MOUNTAINS

CITY           SKY/WX    TMP DP  RH WIND       PRES   REMARKS
FARMINGTON     FAIR      73  47  39 E7        30.11F
LOS ALAMOS     FAIR      68  51  53 NE5       30.29F
SANTA FE       FAIR      70  55  59 E7        30.21F
TAOS           FAIR      61  37  41 NE3       30.30F
ANGEL FIRE     FAIR      52  48  87 CALM      30.42R

$$
NMZ402-403-502-505>509-241000-
WESTCENTRAL MOUNTAINS/SOUTHWEST MOUNTAINS

CITY           SKY/WX    TMP DP  RH WIND       PRES   REMARKS
GALLUP         FAIR      61  53  75 SW3       30.21F
GRANTS         FAIR      69  48  47 S9        30.23S
SILVER CITY    FAIR      71  45  39 W10       30.12R

$$
NMZ407-409-411-412-241000-
SOUTHERN DESERTS

CITY           SKY/WX    TMP DP  RH WIND       PRES   REMARKS
LORDSBURG      FAIR      73  46  38 W9        30.03S
DEMING         FAIR      75  47  36 W5        30.01F
LAS CRUCES     FAIR      85  43  23 N13G18    30.00F
ALAMOGORDO     FAIR      79  37  22 N8        30.00F
T OR C         FAIR      78  47  33 NW6       30.07S

$$
NMZ519>523-241000-
CENTRAL VALLEYS/CENTRAL HIGHLANDS

CITY           SKY/WX    TMP DP  RH WIND       PRES   REMARKS
ALBUQUERQUE    MOCLDY    80  50  34 CALM      30.13F
DOUBLE EAGLE   FAIR      75  50  41 N7        30.17F
MORIARTY ARPT  FAIR      63  48  57 NE5       30.21F
CLINES CORNERS FAIR      68  45  43 E3        30.28S
BELEN          FAIR      74  48  39 NE5       30.12S
SOCORRO        FAIR      78  45  31 CALM      30.08F

$$
NMZ524>526-539-540-241000-
SOUTHCENTRAL MOUNTAINS

CITY           SKY/WX    TMP DP  RH WIND       PRES   REMARKS
RUIDOSO        NOT AVBL

$$
NMZ527>531-241000-
NORTHEAST HIGHLANDS/NORTHEAST PLAINS

CITY           SKY/WX    TMP DP  RH WIND       PRES   REMARKS
LAS VEGAS      FAIR      65  49  56 NE3       30.26S
RATON          FAIR      70  49  47 N12       30.21S
CLAYTON        FAIR      71  58  63 N12       30.12S

$$
NMZ532>537-241000-
EASTCENTRAL PLAINS

CITY           SKY/WX    TMP DP  RH WIND       PRES   REMARKS
TUCUMCARI      FAIR      77  49  37 SW8       30.06R
CANNON AFB     FAIR      71  55  56 S2        30.08R
CLOVIS AIRPORT FAIR      72  54  53 S7        30.07S

$$
NMZ028-029-538-241000-
SOUTHEAST PLAINS

CITY           SKY/WX    TMP DP  RH WIND       PRES   REMARKS
ROSWELL        FAIR      75  48  38 W5        30.01S
ARTESIA        FAIR      79  55  44 S7        30.00S
CARLSBAD       FAIR      78  55  44 S7        29.97F
HOBBS          FAIR      73  54  49 S7        30.04F


$$




USA.gov is the U.S. government's official web portal to all federal, state and local government web resources and services.